EST,Max TemperatureF,Mean TemperatureF,Min TemperatureF,Max Dew PointF,MeanDew PointF,Min DewpointF,Max Humidity, Mean Humidity, Min Humidity, Max Sea Level PressureIn, Mean Sea Level PressureIn, Min Sea Level PressureIn, Max VisibilityMiles, Mean VisibilityMiles, Min VisibilityMiles, Max Wind SpeedMPH, Mean Wind SpeedMPH, Max Gust SpeedMPH,PrecipitationIn, CloudCover, Events, WindDirDegrees
2012-11-1,53,44,35,36,33,32,93,62,44,29.84,29.77,29.73,10,10,10,13,6,21,0.00,5,,263
2012-11-2,55,44,32,37,31,27,100,63,36,29.97,29.87,29.82,10,10,10,10,4,20,0.00,3,Rain,257
2012-11-3,55,46,37,36,30,27,87,56,33,30.11,30.04,29.97,10,10,10,13,5,18,0.00,1,,316
2012-11-4,50,44,39,41,36,36,93,77,58,30.10,30.04,29.99,10,10,10,8,4,,0.01,6,Rain,50
2012-11-5,50,42,32,39,32,28,93,73,43,30.13,30.07,30.02,10,10,5,12,3,,0.00,2,,8
2012-11-6,42,36,30,32,30,28,100,77,57,30.16,30.06,29.93,10,9,5,10,3,,0.00,4,,7
2012-11-7,51,43,35,36,32,30,93,75,44,29.94,29.90,29.84,10,10,10,12,5,18,0.00,6,Rain,349
2012-11-8,59,46,33,32,23,12,93,49,17,30.10,30.01,29.94,10,10,10,12,4,16,0.00,1,,300
2012-11-9,60,48,35,34,28,18,87,48,29,30.26,30.20,30.10,10,10,10,8,4,,0.00,0,,276
2012-11-10,69,51,33,37,32,28,93,51,21,30.39,30.31,30.25,10,10,10,10,5,,0.00,0,,199
2012-11-11,71,54,37,50,41,34,93,60,30,30.49,30.43,30.38,10,10,7,13,5,17,0.00,0,,189
2012-11-12,71,61,51,59,54,50,100,77,53,30.43,30.31,30.19,10,9,5,10,5,12,0.00,1,,166
2012-11-13,62,48,35,59,44,34,100,93,82,30.43,30.31,30.16,10,7,0,13,7,22,0.19,7,Fog-Rain,357
2012-11-14,46,39,32,34,30,28,93,74,53,30.50,30.43,30.39,10,10,10,12,6,20,0.00,0,,21
2012-11-15,46,40,33,41,35,30,93,83,66,30.39,30.31,30.24,10,10,4,9,5,,0.18,5,Rain,3
2012-11-16,51,43,35,39,35,32,93,73,47,30.40,30.31,30.27,10,10,7,10,4,,0.00,2,,7
2012-11-17,53,42,32,34,30,21,100,67,28,30.50,30.46,30.40,10,10,10,12,6,24,0.00,1,,17
2012-11-18,53,48,42,41,40,34,81,73,62,30.49,30.43,30.37,10,10,10,14,9,22,0.00,8,,21
2012-11-19,55,50,44,43,41,37,87,73,62,30.37,30.28,30.19,10,10,7,14,9,18,0.00,7,,7
2012-11-20,55,48,41,43,40,37,93,76,58,30.19,30.12,30.07,10,10,7,7,4,,0.00,4,,358
2012-11-21,55,45,35,43,35,30,100,74,41,30.19,30.14,30.10,10,7,0,13,3,17,0.00,1,Fog,3
2012-11-22,57,44,32,32,28,23,93,58,27,30.26,30.20,30.16,10,10,10,12,4,16,0.00,0,,356
2012-11-23,64,47,30,36,31,23,93,56,30,30.17,30.00,29.87,10,10,10,14,4,20,0.00,0,,226
2012-11-24,50,41,32,27,20,16,57,45,31,30.12,30.00,29.88,10,10,10,14,9,20,0.00,0,,314
2012-11-25,48,36,24,23,19,16,80,51,27,30.16,30.08,30.01,10,10,10,13,5,17,0.00,0,,225
2012-11-26,62,47,32,28,24,19,75,45,19,30.19,30.14,30.07,10,10,10,8,5,,0.00,0,,222
2012-11-27,51,43,35,41,35,27,100,72,53,30.25,30.16,30.12,10,9,4,9,4,,0.10,7,Rain,325
2012-11-28,50,41,30,34,30,23,100,75,43,30.38,30.31,30.24,10,9,5,8,4,,0.00,2,,323
2012-11-29,51,40,28,28,24,19,86,56,33,30.47,30.41,30.37,10,10,10,8,2,,0.03,0,,229
2012-11-30,60,44,28,34,31,27,94,64,34,30.40,30.34,30.29,10,10,5,8,5,,0.00,0,,205